Location: Le Moustier
(44.1000°N, 6.5167°E)
Time: 07:39:57
(UTC+00:00)

Cosmos 923 Rocket - Pass Details

Date: 13 December 2025
Orbit: 755 x 780 km, 74.0° (Epoch: 13 January)

Event Time Altitude Azimuth Distance (km) Brightness Sun altitude
Rises 17:21:27 0° 346° (NNW) 3,226 7.2 -14.7°
Reaches altitude 10° 17:24:02 10° 355° (N) 2,294 6.3 -15.2°
Maximum altitude 17:28:47 35° 61° (ENE) 1,203 4.5 -16.0°
Enters shadow 17:32:48 14° 123° (ESE) 2,037 5.8 -16.7°
